Location: Newark
(43.6583°N, 1.6617°E)
Time: 07:55:13
(UTC+00:00)

Tiros 1 - Pass Details

Date: 03 September 2019
Orbit: 630 x 664 km, 48.4° (Epoch: 20 September)

Event Time Altitude Azimuth Distance (km) Brightness Sun altitude
Rises 20:22:33 0° 255° (WSW) 2,919 11.1 -20.3°
Reaches altitude 10° 20:24:53 10° 258° (WSW) 2,009 10.3 -20.7°
Maximum altitude 20:29:29 67° 341° (NNW) 683 7.3 -21.4°
Enters shadow 20:31:36 31° 56° (NE) 1,108 8.1 -21.7°
